[Date Prev][Date Next][Thread Prev][Thread Next] - [Date Index][Thread Index][Author Index]

2 Line ISS Keps 8-25



ISS
1 25544U 98067A   01237.45836272  .00024695  00000-0  33808-3 0  3816
2 25544  51.6397  99.7533 0008253  35.5573  27.6096 15.57219701157893


----
Via the sarex mailing list at AMSAT.ORG courtesy of AMSAT-NA.
To unsubscribe, send "unsubscribe sarex" to Majordomo@amsat.org



AMSAT Top AMSAT Home